Back to catalog

ATLAS H R/B

AliveLEO
NORAD 17998·ROCKET BODY·🇺🇸 United States

Launched May 15, 1987 from Vandenberg Space Force Base

Loading…

Next Passes (next 24 hours)

TLE

FreshSource: Space-Track

Epoch: Sep 14, 2026, 05:48 UTC

1 17998U 87043B   26257.24222853  .00000768  00000-0  28086-3 0  9994
2 17998  63.3224 358.0395 0697990 118.6718 248.6305 13.51556004363292

Track ATLAS H R/B in real time with AllMySat

Download on the App Store